Probability
4 6 8 7 5 3 3 3 1 0 0 1 2 2 2 2 3 3 2 1 2 2 2 3 2 2 3 4 3 3 4 4 4 3 2 1 2 2 3 5 5 2 2
5 7 10 9 6 4 3 3 2 1 0 0 1 1 1 2 3 3 1 0 1 1 1 2 1 1 3 3 3 3 3 3 2 1 1 1 2 2 3 5 5 4 3
6 8 10 10 8 6 5 4 3 2 1 0 0 0 1 3 4 3 1 0 0 0 0 1 1 2 2 2 2 1 1 1 0 0 0 0 1 2 3 4 4 5 4
8 9 11 11 9 8 7 6 5 4 2 1 0 0 0 2 3 2 0 0 0 0 0 1 2 2 1 2 1 0 0 0 0 0 0 0 0 1 2 2 2 3 3
6 8 10 12 12 11 10 8 6 5 3 1 1 1 1 1 2 1 0 0 0 0 0 1 1 1 2 2 2 1 0 0 0 0 0 0 0 0 1 0 0 1 1
3 5 9 12 15 14 12 10 8 5 4 4 3 3 2 2 2 2 1 1 1 1 1 1 1 2 4 4 4 2 1 0 0 0 0 0 0 0 0 0 0 0 0
2 4 7 11 15 15 13 11 9 6 6 7 6 5 4 3 3 3 2 2 2 2 2 3 4 6 6 6 5 3 1 0 0 0 0 0 0 0 0 0 0 0 0
1 4 7 9 12 14 12 10 9 7 7 9 9 7 5 4 3 2 3 3 3 3 4 4 5 7 8 7 6 3 1 1 0 0 0 0 1 1 1 1 0 0 0
1 3 5 7 9 11 11 10 9 7 7 9 10 9 8 6 4 3 3 3 3 4 5 5 5 6 7 7 6 3 1 1 0 0 0 1 3 3 3 2 1 0 0
0 2 4 5 6 7 8 9 9 8 7 8 9 9 8 8 7 5 3 3 4 4 5 5 5 5 5 5 5 3 2 0 0 0 0 1 5 6 5 3 2 1 1
1 2 3 4 4 4 4 6 8 8 7 7 7 7 7 7 7 6 4 5 6 5 4 4 4 4 2 2 3 2 1 0 0 0 0 2 5 6 5 4 3 3 2
2 3 4 5 5 3 2 4 6 7 6 6 6 6 6 6 6 5 6 8 8 6 5 4 3 2 2 1 1 1 0 0 0 0 1 2 4 5 4 3 3 3 3
3 4 5 7 6 4 4 5 6 6 6 6 6 7 7 6 5 5 6 8 8 7 6 5 4 3 2 2 1 0 0 0 0 0 2 4 5 5 4 3 3 3 2
4 4 6 8 8 8 8 7 8 8 6 6 8 9 8 6 4 5 6 7 7 7 6 6 5 4 3 2 1 0 0 0 1 2 3 5 6 5 4 3 3 1 1
5 6 6 7 8 9 10 9 8 7 7 8 10 12 10 7 5 4 6 7 7 6 5 5 5 5 3 1 1 1 0 1 3 4 5 7 6 4 3 2 2 1 1
6 7 6 5 6 8 9 8 6 5 6 9 13 15 12 8 6 6 7 7 5 4 4 3 4 4 3 1 0 1 1 1 4 6 6 6 5 4 2 1 1 2 3
7 7 6 3 4 6 7 5 4 5 6 9 14 17 13 9 8 9 9 7 4 3 3 2 3 4 3 2 2 1 2 3 4 5 5 5 5 4 2 1 0 1 3
9 9 6 4 5 7 6 5 4 5 7 9 12 14 14 12 11 12 11 8 6 5 4 2 3 4 5 6 5 3 2 4 5 4 4 4 5 5 4 2 1 1 1
13 11 7 5 8 8 7 6 6 6 8 10 11 13 15 15 13 13 13 11 8 6 4 2 3 4 5 6 6 4 3 4 4 3 3 3 5 6 5 4 4 2 0
16 16 12 8 9 10 8 8 8 9 11 11 12 14 16 15 13 12 12 11 9 6 4 3 3 4 3 3 4 4 4 4 4 4 3 3 4 6 6 7 7 4 1
19 20 17 13 11 11 11 10 10 11 13 11 11 13 14 14 11 10 11 11 9 7 5 4 3 3 2 1 1 3 4 4 4 5 4 4 4 6 8 9 9 8 7
20 21 19 17 15 13 12 11 8 9 11 10 9 11 12 13 11 9 10 10 9 8 7 5 4 4 2 0 0 1 2 3 4 5 6 5 5 6 8 8 10 12 13
19 19 19 19 17 14 13 11 8 8 9 9 9 10 11 13 12 11 9 9 8 7 8 8 7 8 6 3 2 2 2 3 4 5 6 6 6 7 7 7 10 13 15
17 17 19 20 19 17 16 13 10 10 9 10 10 10 11 13 14 12 11 9 8 7 7 8 10 12 10 7 6 5 5 6 7 7 7 6 6 7 7 7 10 13 14
14 16 19 21 21 20 19 17 14 12 10 10 12 12 12 13 14 14 13 11 10 9 8 9 13 16 15 13 11 9 8 9 9 7 7 6 6 6 6 7 8 10 13
12 15 20 23 22 22 21 19 17 14 11 11 13 14 14 13 14 16 14 13 12 10 10 12 17 20 19 16 14 11 8 9 9 7 5 7 6 5 7 7 7 8 10
Wind_Speed
10 11 11 10 10 10 10 9 9 9 9 8 8 9 9 9 9 9 9 10 10 11 11 11 10 10 10 10 10 10 10 10 10 10 10 10 10 10 10 11 11 9 13
12 12 12 11 10 10 9 9 9 9 9 8 9 9 9 9 9 9 9 10 10 11 11 10 9 9 9 9 9 10 9 10 10 10 10 9 9 10 9 9 9 8 13
13 12 12 11 11 10 9 9 9 9 9 9 9 9 9 9 9 9 10 10 10 10 11 10 9 9 9 9 9 9 9 9 9 8 8 6 7 9 10 10 11 12 12
12 11 11 12 11 10 9 9 9 9 9 9 9 9 9 9 9 9 10 10 10 10 10 10 9 8 8 9 9 8 8 8 8 7 4 4 6 9 9 10 12 12 11
11 12 12 13 11 10 8 8 9 9 9 9 9 9 9 9 9 9 9 10 10 10 10 10 9 8 8 8 8 7 7 6 5 5 4 4 5 9 11 11 12 11 11
12 13 13 13 11 10 9 8 8 8 8 9 9 9 9 9 9 9 9 9 10 10 9 9 9 8 8 7 7 7 6 5 4 4 5 6 7 10 11 11 11 11 10
11 13 13 13 12 10 9 8 7 7 8 8 8 8 9 9 9 9 8 8 8 8 8 8 8 8 7 7 6 6 5 5 3 4 5 6 7 11 11 11 10 10 10
11 13 12 13 12 10 9 8 7 6 6 7 7 7 7 8 8 8 7 8 8 8 8 8 7 7 6 6 5 5 4 3 3 6 6 6 9 11 11 11 10 10 10
9 11 11 11 10 10 9 8 7 6 6 6 6 7 7 7 8 7 7 8 8 7 7 7 6 6 6 5 5 4 4 3 1 3 7 6 10 11 11 10 10 10 10
8 8 8 9 8 8 8 9 8 7 6 6 6 6 6 7 8 8 7 7 7 7 6 5 5 5 5 5 4 4 4 3 2 5 5 7 11 11 11 9 9 9 9
7 6 6 7 6 5 7 8 9 8 6 6 6 6 5 4 5 6 7 7 7 6 6 5 5 5 5 5 5 4 3 2 4 4 4 9 11 11 10 9 9 9 9
6 6 6 6 5 3 4 4 4 4 5 4 3 4 3 2 3 5 8 9 7 6 5 5 4 4 3 3 5 5 2 2 4 5 6 11 11 11 10 9 8 8 9
6 6 6 6 4 3 2 2 1 2 3 3 3 3 3 3 2 3 3 5 5 5 3 4 4 2 2 1 2 2 2 2 3 4 7 11 11 11 10 9 8 8 8
6 6 6 6 4 3 3 1 1 1 2 2 3 3 3 2 1 2 2 2 3 2 2 2 2 2 2 2 1 0 1 2 3 4 6 11 10 10 9 9 8 8 8
5 6 6 5 3 2 2 1 1 1 2 3 2 2 2 2 1 2 1 1 1 1 2 2 1 2 1 1 1 1 1 2 4 5 5 10 10 9 8 8 7 7 7
5 5 5 5 4 2 1 1 1 1 2 2 2 3 2 2 1 1 1 1 1 1 2 1 1 2 2 1 1 1 2 2 3 4 5 6 9 9 8 8 8 7 7
5 5 4 5 4 2 1 1 1 1 2 2 3 3 2 2 1 1 1 1 1 1 2 1 1 1 2 2 1 2 2 2 2 3 4 4 5 8 8 7 7 7 7
5 4 2 3 4 2 1 1 1 1 2 2 3 3 2 2 1 1 1 1 1 1 1 2 2 1 1 1 2 1 2 2 2 2 3 4 4 5 6 8 7 6 7
5 4 3 3 3 2 2 1 0 1 1 2 3 2 2 1 1 1 1 2 1 1 1 1 2 1 1 1 2 2 2 1 2 2 3 4 4 4 4 6 8 7 7
5 4 3 3 2 2 2 0 0 1 1 2 2 2 2 1 2 1 1 2 1 1 1 2 2 1 1 0 1 2 1 2 1 1 2 3 4 4 5 6 5 5 7
6 5 4 3 2 1 1 0 0 1 1 1 2 2 3 2 2 2 1 2 1 1 1 1 1 1 1 1 1 1 1 1 2 2 2 2 3 4 4 5 5 4 4
6 5 4 3 3 2 1 1 1 1 1 2 2 3 3 2 2 2 1 1 1 1 1 1 1 0 1 1 1 1 1 0 0 2 2 2 2 3 3 5 4 5 5
7 6 5 4 3 2 1 1 0 1 0 1 2 2 2 2 2 1 2 1 0 1 1 1 1 0 1 0 1 1 1 1 0 0 2 2 2 2 2 3 4 4 5
8 7 5 5 3 2 2 1 1 1 1 1 2 2 2 2 2 2 2 1 0 1 1 1 1 1 1 1 1 1 0 2 1 1 1 2 2 2 2 2 3 4 4
8 8 7 6 4 3 2 2 1 1 1 1 2 2 2 2 2 2 2 1 1 0 1 0 0 1 1 1 1 1 0 1 1 2 2 2 1 2 2 2 3 3 4
8 7 7 7 5 4 3 3 2 2 1 0 1 2 2 2 2 2 2 2 1 1 1 1 1 1 1 1 1 1 1 1 1 1 1 2 2 1 2 2 2 3 3
Wind_Direction
99 103 101 101 102 100 97 93 90 93 96 95 92 89 87 85 84 86 94 102 106 109 112 115 116 117 117 116 114 112 113 115 115 115 115 116 121 127 132 138 142 128 127
106 107 105 102 100 100 98 92 90 94 94 94 92 90 88 87 85 86 96 104 108 110 112 113 114 116 119 121 120 119 118 122 124 125 126 124 126 131 135 138 130 127 132
106 112 111 104 98 96 96 94 93 92 91 93 92 90 86 86 86 89 99 104 108 113 115 116 117 119 120 123 127 126 126 132 134 139 147 133 124 127 131 131 128 127 131
109 111 110 110 104 101 97 96 96 93 90 91 93 93 89 88 88 91 99 104 108 111 116 119 122 124 125 127 130 132 138 146 151 161 158 131 126 127 129 131 131 130 133
105 109 113 117 115 113 107 101 99 96 93 94 95 95 93 92 93 93 101 109 111 112 115 120 124 124 129 133 136 140 147 158 170 162 132 117 112 126 126 131 132 134 136
115 115 120 124 123 121 118 110 105 106 105 103 101 98 95 92 96 94 97 106 113 114 115 119 125 125 132 140 145 153 160 174 187 154 129 121 118 132 132 135 137 141 142
113 116 120 128 129 127 125 119 112 111 113 114 111 106 102 98 98 99 99 104 112 118 120 123 127 129 135 143 152 164 176 192 190 130 117 112 123 136 137 138 139 143 145
112 117 124 134 134 132 131 127 124 122 122 123 120 114 112 110 103 105 108 110 112 116 122 127 129 131 138 146 157 174 186 205 159 123 116 113 131 140 141 142 143 147 148
103 116 129 139 139 139 136 133 134 139 137 138 137 130 128 125 117 118 119 120 121 122 126 130 134 142 144 155 172 189 198 207 219 125 125 124 139 142 143 141 144 148 150
88 102 119 131 133 145 148 146 151 152 146 151 155 148 145 140 137 135 131 131 132 133 135 139 143 153 157 167 185 203 217 221 183 118 117 130 140 140 141 144 147 149 151
79 83 95 107 123 134 139 144 161 162 155 155 158 158 157 156 146 147 137 140 142 143 147 153 159 160 165 180 197 218 236 220 126 111 113 133 141 142 144 146 150 158 158
86 79 72 76 81 84 106 130 151 150 149 156 147 151 157 133 122 126 142 152 156 160 160 168 173 173 186 182 192 205 221 190 122 123 127 139 145 150 150 152 155 161 165
89 82 80 68 60 59 68 114 104 124 140 144 129 128 116 115 126 127 142 154 161 170 174 162 175 190 184 167 147 177 196 150 118 116 133 145 151 155 154 157 162 165 168
89 84 79 75 59 43 35 43 120 128 138 122 128 131 124 130 125 129 139 146 157 160 153 146 153 165 146 124 125 152 119 117 113 113 139 147 153 158 160 162 167 170 172
92 88 90 88 78 70 38 333 85 98 105 106 109 110 117 120 117 121 124 115 125 134 138 142 157 141 115 110 141 114 122 107 116 125 135 153 157 157 159 164 170 172 172
96 86 92 97 86 77 62 353 20 73 92 95 96 92 91 92 92 114 114 109 110 117 121 125 132 121 122 110 105 92 78 91 113 130 139 154 159 161 164 167 171 174 176
103 93 103 114 99 77 51 355 82 70 82 95 96 88 84 91 88 103 111 133 130 131 125 125 108 120 135 135 125 109 93 91 119 133 142 149 157 166 169 166 170 176 176
106 99 92 104 110 115 95 7 16 42 74 93 106 107 107 88 75 86 106 115 111 124 136 139 134 128 114 122 120 112 106 118 134 138 144 147 155 158 169 173 175 177 178
111 112 102 84 105 116 109 122 120 85 70 89 104 110 114 102 76 73 68 73 93 82 68 97 99 111 118 130 135 133 143 151 145 152 146 150 152 149 155 169 175 174 177
123 118 117 102 94 105 110 64 13 101 117 113 111 114 112 113 98 77 104 85 75 77 63 60 78 93 113 151 128 121 147 148 154 149 153 145 149 157 163 168 172 175 176
132 129 122 121 108 88 78 126 160 137 157 127 122 123 118 114 110 109 82 110 113 97 99 94 89 129 142 152 106 103 123 155 158 148 155 158 152 157 160 162 166 164 166
138 137 139 137 127 123 120 236 186 137 162 125 108 117 114 122 122 132 124 128 126 122 104 105 113 138 214 148 143 165 140 106 175 161 161 158 153 149 151 153 161 164 161
152 153 156 146 144 144 161 194 156 146 90 89 113 118 122 128 126 101 115 102 49 109 123 144 151 204 250 216 178 183 165 151 167 150 162 151 139 137 146 154 159 155 157
160 158 149 146 149 155 184 209 179 144 137 134 129 134 144 148 142 133 134 128 95 67 121 204 145 274 256 249 258 265 124 128 150 151 167 147 154 153 166 167 146 145 146
165 162 155 149 156 165 189 194 198 157 169 119 116 139 147 150 156 154 151 149 138 166 147 103 48 327 297 303 300 304 350 189 194 178 173 162 167 168 170 170 145 147 151
164 159 157 154 163 173 187 191 188 188 184 158 139 153 158 146 146 141 153 157 174 180 177 198 227 254 269 312 310 303 280 224 172 166 165 171 171 178 165 161 149 149 154